User: anonymous   Login
Location: Unspecified
(0.0000°N, 0.0000°E)
Time: 03:26:12
(UTC+00:00)
Language:

WGS F2 (USA 204) - Orbit

View from above orbital plane
View from above orbital plane
View from above satellite
View from above satellite

Ground track
Ground track

The orbit data is extracted from the following two-line orbital elements,

1 34713U 09017A   17066.33274637 0.00000000  00000-0  00000-0 0    03
2 34713   0.0300 345.1741 0001458  70.5236 289.5137  1.00270000    04
Epoch (UTC): 07 March 2017 07:59:09
Eccentricity: 0.0001458
inclination: 0.0300°
perigee height: 35780 km
apogee height: 35793 km
right ascension of ascending node: 345.1741°
argument of perigee: 70.5236°
revolutions per day: 1.00270000
mean anomaly at epoch: 289.5137°
orbit number at epoch: 0

The dashed part of the orbit path shows where the satellite is in the earth's shadow,  

DLR